Погода в Бресте

Погода в Бресте : погода сейчас, прогноз погоды и архив. Всё, что Вы хотите узнать о погоде в Бресте!

Поиск расширенной информации на нашем сайте:

Другие новости

Новости СМИ2

Главная страница сайта

Новости сайта

03.07.2017

Напоминаем, что на нашем специализированном сайте Метеоцентр.Азия вы можете получить высокодетализированные автоматические прогнозы погоды по пунктам России, СНГ и мира в авиационном формате (включающие направление и скорость ветра, видимость, явления погоды, количество и форму облачности, нижнюю и верхнюю границу облачности).


Погода в Бресте - сегодня

Время (UTC), дата Ветер
(°,м/с) 
Видим.   Явления Облачность Т
(°С)
Тd
(°С)
f(%) Тe
(°С)
Pmin
(гПа)
dP
(гПа)
Po
(мм)
O2
(г/м3)
Тmin Tmax R s Состояние
почвы
09 17.06.18 100 (В) 30000 м    4/0 верхняя 
[Ci sp]
+26.3 +8.7 33 +26  1016.3  0.4  750  274           
12 17.06.18 050 (СВ) 30000 м    8/8 2000 м верхняя 
[Cu Sc|Ci fib]
+26.9 +8.8 32 +27  1015.4  -0.8  749  273           
15 17.06.18 060 (СВ) 30000 м    8/4 2000 м средняя 
[Sc|Ac und]
+27.4 +8.3 30 +27  1014.5  -0.9  749  273           
18 17.06.18 110 (В) 30000 м    9/0 средняя 
[Ac und]
+25.9 +8.8 34 +26  1014.6  749  274    +28.6       
21 17.06.18 150 (ЮВ) 30000 м    10/3 600 м кучево-дожд., средняя 
[Cb cap|As op]
+23.3 +10.7 45 +25  1015.7  749  276           
00 18.06.18 300 (СЗ) 30000 м  слаб. дождь{ливн. осадки}  10/0 средняя 
[As op]
+18.6   1016.5  0.4  750        0.4     
03 18.06.18 320 (СЗ) 30000 м  {дождь}  10/10 2000 м 
[Sc]
+17.3 +15.8 91 +28  1016.4  -0.2  749  281      0.8     
06 18.06.18 тихо ()   30000 м  в посл. час дождь  10/5 1500 м средняя 
[Sc|As op]
+19.2 +16.1 82 +30  1017  0.8  750  279  +17       
09 18.06.18 060 (СВ) 30000 м    8/3 1500 м средняя 
[Sc|Ac trans]
+24.1 +13 50 +30  1016.8  0.1  750  275           
12 18.06.18 360 (С) 30000 м    8/3 2000 м верхняя 
[Cu hum|Ci sp]
+27.7 +12.9 40 +33  1016.3  -0.3  750  272           
15 18.06.18 330 (СЗ) 2{11}  30000 м    4/3 2000 м верхняя 
[Cu hum|Cs]
+29.1 +11.2 33 +32  1015.1  -1  749  271           
18 18.06.18 340 (С) 30000 м    9/6 2000 м средняя 
[Sc|Ac trans]
+26.5 +11.8 40 +30  1015.9  0.6  750  273    +29.4       
21 18.06.18 тихо ()   30000 м    8/8 2000 м 
[Sc]
+20.2 +16 77 +31  1017.5  1.1  750  278           
00 19.06.18 тихо ()   30000 м    8/0 средняя 
[Ac trans]
+19.2 +16.1 82 +30  1017.2  -0.3  750  279           
03 19.06.18 320 (СЗ) 30000 м    9/0 средняя 
[Ac trans]
+18.9 +14.6 76 +28  1017.9  0.6  751  280           
06 19.06.18 340 (С) 30000 м    4/0 средняя 
[Ac trans]
+22.6 +14.4 60 +30  1018.2  0.6  751  277  +18.8         
09 19.06.18 250 (З) 30000 м    8/4 1000 м верхняя 
[Cu med, cong|Ci fib]
+26.3 +13.8 46 +33  1018.1  0.1  751  273           
12 19.06.18 310 (СЗ) 30000 м    6/5 1000 м верхняя 
[Cu med, cong|Ci fib]
+27.5 +10.2 34 +29  1017.5  -0.5  751  273           
15 19.06.18 280 (З) 30000 м    8/4 1000 м средняя, верхняя 
[Cu med, cong|Ac trans|Ci fib]
+27 +10.2 35 +28  1017.3  -0.2  751  273           
18 19.06.18 310 (СЗ) 3{11}  30000 м    4/1 1000 м верхняя 
[Cu med, cong|Ci]
+24.4 +10.3 41 +26  1017.9  0.4  751  276    +28.6       
21 19.06.18 260 (З) 30000 м    4/0 верхняя 
[Ci fib]
+21.1 +11.1 53 +24  1019.3  1.1  752  279           
00 20.06.18 290 (З) 30000 м    ясно 
+18.2 +12 67 +24  1020.6  1.1  753  282           
03 20.06.18 250 (З) 30000 м    3/0 средняя 
[Ac trans]
+15.8 +12.7 82 +22  1021.7  753  284           
06 20.06.18 250 (З) 30000 м    ясно 
+21.1 +12.8 59 +26  1022  0.6  754  279  +15         
09 20.06.18 290 (З) 30000 м    8/8 1000 м 
[Cu hum]
+23.8 +10.8 44 +26  1021.5  -0.3  754  277           
Время (UTC), дата Ветер
(°,м/с) 
Видим.   Явления Облачность Т
(°С)
Тd
(°С)
f(%) Тe
(°С)
Pmin
(гПа)
dP
(гПа)
Po
(мм)
O2
(г/м3)
Тmin Tmax R s Состояние
почвы

Для получения пояснительной информации подведите курсор к названию столбца.

ПОГОДА в Бресте - архив

Всё, что Вы хотите узнать о погоде в Бресте - удобно и подробно!

Выберите нужную дату (начиная с 1 января 2015* года) и нажмите кнопку "Найти".
Будут отображены архивные сводки погоды по пункту Брест, начиная с указанной даты.


Отображать данные в формате CSV (для использования в таблицах Excel)


Внимание! Наш архив погоды предназначен исключительно для личного некоммерческого использования в познавательных целях. Если Вам необходимы официальные справки о состоянии погоды (для производственных, юридических, коммерческих и т.п. целей), обращайтесь в органы Росгидромета.

*Примечание: данная дата относится к архиву по метеостанциям СССР (Россия, СНГ, Балтия).
Архив по метеостанциям Зарубежной Европы и Азии (кроме Китая) хранится 10 дней, по другим регионам земного шара (Китай, Африка, Америка, Австралия, Океания) - 1 день.

Брест - район местоположения метеостанции


Название, широта, долгота, высота метеостанции:
Брест 52.1°ш. 23.7°д. 146 м над ур. моря [Беларусь]

Дополнительная информация

В oтличие oт бoльшинства пoгoдных сайтoв мы публикуем пoдрoбную метеoинфoрмацию в детальнoм прoфессиoнальнoм фoрмате.

Характеристики температуры и влажнoсти вoздуха измеряются на высoте 2 м в тени вдали oт зданий и деревьев.
Скoрoсть ветра измеряется на высoте 10 м (на урoвне рoста челoвека скoрoсть ветра ниже в 1.5-2 раза). Если метеoстанция нахoдится в гoрoде или в лесу, тo скoрoсть ветра занижена на 2-4 м/с пo сравнению с oткрытым местoм. Скoрoсть ветра над акватoриями крупных рек и oзёр, а также на вершинах хoлмoв на 2-5 м/с выше, чем в oбычных услoвиях.
Атмoсфернoе давление в разных тoчках местнoсти мoжет значительнo oтличаться oт давления на метеoстанции, в зависимoсти oт услoвий рельефа (при пoдъёме на 10 м давление пoнижается примернo на 1 мм рт.ст.).